Weather History for Beaufort, NC

Change the Weather History Date:

Wednesday, February 19, 2014

  Actual Average Record
Temperature  
Mean Temperature 52 °F -  
Max Temperature 62 °F 58 °F 70 °F (1984)
Min Temperature 43 °F 38 °F 17 °F (1958)
Degree Days  
Heating Degree Days 12    
Growing Degree Days 2 (Base 50)    
Moisture  
Dew Point 49 °F    
Average Humidity 89    
Maximum Humidity 100    
Minimum Humidity 72    
Precipitation  
Precipitation 0.00 in - - ()
Sea Level Pressure  
Sea Level Pressure 30.07 in    
Wind  
Wind Speed 5 mph (SW)    
Max Wind Speed 23 mph    
Max Gust Speed 30 mph    
Visibility 5 miles    
Events      
Averages and records for this station are not official NWS values.
T = Trace of Precipitation, MM = Missing Value Source: NWS Daily Summary

Daily Weather History Graph

Daily Weather History Graph

Search for Another Location

Airport:

Trip Planner

Search our weather history database for the weather conditions in past years. The results will help you decide how hot, cold, wet, or windy it might be!

Date:

Astronomy

Feb. 19, 2014 Rise Set
Actual Time 6:47 AM EST 5:53 PM EST
Civil Twilight 6:22 AM EST 6:19 PM EST
Nautical Twilight 5:52 AM EST 6:48 PM EST
Astronomical Twilight 5:23 AM EST 7:17 PM EST
Moon 10:31 PM EST (2/19) 9:04 AM EST (2/19)
Length of Visible Light 11h 56m
Length of Day
11h 05m
Waning Gibbous, 80% of the Moon is Illuminated
Feb 19
Waning Gibbous
Feb 22
Last Quarter
Mar 1
New
Mar 8
First Quarter
Mar 16
Full

Hourly Weather History & Observations

Time (EST) Temp. Dew Point Humidity Pressure Visibility Wind Dir Wind Speed Gust Speed Precip Events Conditions
12:13 AM 43.0 °F 43.0 °F 100% 30.15 in 2.0 mi Calm Calm - N/A   Clear
12:20 AM 43.0 °F 42.1 °F 97% 30.14 in 4.0 mi Calm Calm - N/A   Clear
12:51 AM 44.1 °F 42.1 °F 93% 30.14 in 1.0 mi Calm Calm - N/A   Clear
12:58 AM 43.0 °F 43.0 °F 100% 30.14 in 1.0 mi Calm Calm - N/A   Clear
1:01 AM 43.0 °F 43.0 °F 100% 30.14 in 1.8 mi Calm Calm - N/A   Partly Cloudy
1:06 AM 44.1 °F 43.0 °F 96% 30.14 in 0.8 mi Calm Calm - N/A   Mist
1:14 AM 43.0 °F 42.1 °F 97% 30.13 in 1.5 mi Calm Calm - N/A   Mostly Cloudy
1:18 AM 43.0 °F 42.1 °F 97% 30.13 in 0.8 mi Calm Calm - N/A   Mist
1:31 AM 44.1 °F 43.0 °F 96% 30.13 in 1.8 mi Calm Calm - N/A   Scattered Clouds
1:33 AM 44.1 °F 44.1 °F 100% 30.13 in 3.0 mi Calm Calm - N/A   Scattered Clouds
1:58 AM 44.1 °F 43.0 °F 96% 30.13 in 3.0 mi Calm Calm - N/A   Clear
2:29 AM 46.0 °F 45.0 °F 96% 30.12 in 4.0 mi Calm Calm - N/A   Mostly Cloudy
2:58 AM 46.9 °F 46.0 °F 97% 30.11 in 4.0 mi Calm Calm - N/A   Overcast
3:31 AM 46.9 °F 46.0 °F 97% 30.09 in 4.0 mi Calm Calm - N/A   Mostly Cloudy
3:58 AM 46.9 °F 46.0 °F 97% 30.09 in 4.0 mi Calm Calm - N/A   Scattered Clouds
4:58 AM 48.0 °F 46.9 °F 96% 30.07 in 5.0 mi Calm Calm - N/A   Scattered Clouds
5:58 AM 48.0 °F 46.9 °F 96% 30.05 in 6.0 mi ESE 4.6 mph - N/A   Partly Cloudy
6:58 AM 51.1 °F 50.0 °F 96% 30.04 in 5.0 mi SE 4.6 mph - N/A   Overcast
7:58 AM 59.0 °F 57.0 °F 93% 30.04 in 5.0 mi South 13.8 mph - N/A   Mostly Cloudy
8:58 AM 59.0 °F 57.0 °F 93% 30.06 in 6.0 mi SW 15.0 mph - N/A   Mostly Cloudy
9:13 AM 59.0 °F 57.0 °F 93% 30.07 in 7.0 mi WSW 12.7 mph - N/A   Mostly Cloudy
9:22 AM 57.9 °F 57.0 °F 97% 30.07 in 6.0 mi West 12.7 mph - N/A   Mostly Cloudy
9:49 AM 59.0 °F 57.0 °F 93% 30.07 in 7.0 mi WSW 12.7 mph - N/A   Overcast
9:58 AM 60.1 °F 55.9 °F 86% 30.07 in 7.0 mi WSW 12.7 mph - N/A   Mostly Cloudy
10:58 AM 61.0 °F 55.0 °F 81% 30.05 in 8.0 mi WSW 12.7 mph - N/A   Mostly Cloudy
11:58 AM 62.1 °F 55.9 °F 80% 30.00 in 8.0 mi SSW 21.9 mph - N/A   Clear
12:58 PM 62.1 °F 55.0 °F 78% 29.97 in 8.0 mi SW 20.7 mph - N/A   Clear
1:58 PM 62.1 °F 55.0 °F 78% 29.95 in 8.0 mi SW 23.0 mph 29.9 mph N/A   Clear
2:58 PM 62.1 °F 54.0 °F 75% 29.94 in 7.0 mi SW 20.7 mph 28.8 mph N/A   Clear
3:58 PM 60.1 °F 53.1 °F 78% 29.94 in 7.0 mi SW 23.0 mph 29.9 mph N/A   Clear
4:58 PM 59.0 °F 53.1 °F 81% 29.98 in 7.0 mi SW 16.1 mph - N/A   Clear
5:58 PM 57.0 °F 52.0 °F 83% 30.00 in 7.0 mi SW 17.3 mph - N/A   Clear
6:58 PM 57.0 °F 50.0 °F 77% 30.03 in 8.0 mi SW 19.6 mph - N/A   Clear
7:58 PM 55.9 °F 48.0 °F 75% 30.05 in 9.0 mi SW 16.1 mph - N/A   Clear
8:58 PM 55.9 °F 46.9 °F 72% 30.07 in 9.0 mi SW 13.8 mph - N/A   Clear
9:58 PM 55.9 °F 46.9 °F 72% 30.09 in 9.0 mi WSW 6.9 mph - N/A   Clear
10:58 PM 55.0 °F 46.9 °F 74% 30.10 in 9.0 mi SW 11.5 mph - N/A   Clear
11:58 PM 55.0 °F 46.9 °F 74% 30.11 in 9.0 mi SW 6.9 mph - N/A   Clear